Vorticity
7 8 9 9 8 9 10 12 13 12 13 14 12 8 23 32 22 14 5 8 10 10 11 9 18 4 -8
10 10 9 10 10 11 15 13 14 15 15 15 14 16 5 21 35 20 10 4 8 14 9 9 11 12 30
13 16 13 13 11 12 14 20 19 17 17 19 17 17 17 11 24 34 20 10 9 9 14 12 8 11 9
13 14 17 16 11 7 5 10 6 11 10 9 14 12 16 13 17 17 32 19 12 9 10 12 13 11 9
13 13 15 16 16 13 11 10 7 4 12 11 14 9 14 16 17 19 18 27 18 13 10 10 10 13 13
12 11 15 14 10 13 9 12 16 4 11 9 9 13 12 12 12 14 26 25 19 21 10 10 8 6 13
14 13 14 19 10 21 17 14 9 6 13 16 8 12 13 11 8 18 14 24 10 13 26 10 10 9 8
17 14 11 12 10 1 10 13 9 10 15 14 10 12 14 13 9 12 13 19 31 22 15 20 14 10 8
15 14 16 11 14 15 17 15 11 13 8 10 14 9 13 16 13 14 17 12 18 20 18 15 24 3 14
11 14 20 20 10 14 16 13 9 8 14 17 16 8 14 13 12 9 16 18 16 16 25 29 4 38 13
8 14 12 21 14 10 15 10 9 13 10 14 17 9 10 7 9 10 14 12 17 11 12 18 13 27 22
6 8 15 18 17 16 9 18 10 7 7 8 17 11 7 9 7 11 14 12 11 12 15 13 16 13 24
1 14 17 7 16 20 16 12 14 8 12 14 11 5 17 16 5 9 13 11 11 9 11 11 14 25 19
13 11 11 21 7 11 21 13 12 10 12 15 13 18 6 16 8 4 1 9 8 9 8 6 12 12 32
4 11 12 19 15 15 12 12 9 9 12 15 14 13 17 6 8 12 9 1 3 8 7 6 6 3 11
9 5 7 5 12 17 14 7 8 9 11 12 12 11 10 11 13 7 12 15 14 13 9 5 7 5 3
29 16 5 7 15 11 13 13 8 10 11 11 12 11 10 15 5 7 9 9 11 12 13 11 9 6 5
Height
2985 2984 2979 2976 2976 2974 2973 2971 2973 2973 2971 2969 2967 2968 2969 2971 2976 2980 2983 2986 2991 2995 2998 3002 3006 3009 3015
2975 2972 2966 2965 2962 2960 2960 2958 2957 2959 2958 2956 2955 2956 2956 2957 2959 2963 2968 2971 2976 2981 2985 2988 2991 2995 2998
2959 2959 2955 2953 2951 2949 2949 2947 2947 2946 2945 2945 2944 2943 2945 2945 2946 2948 2951 2957 2962 2965 2971 2975 2979 2983 2988
2947 2945 2942 2942 2940 2938 2938 2938 2936 2935 2935 2935 2933 2932 2933 2934 2935 2936 2937 2940 2946 2951 2956 2961 2966 2971 2977
2935 2932 2930 2929 2928 2928 2926 2926 2925 2926 2924 2924 2924 2924 2924 2923 2923 2925 2926 2927 2932 2936 2942 2948 2953 2959 2964
2924 2921 2919 2918 2918 2917 2916 2915 2912 2918 2914 2914 2915 2913 2914 2914 2914 2914 2915 2916 2919 2923 2929 2934 2940 2946 2952
2914 2911 2908 2909 2908 2906 2906 2904 2903 2905 2904 2903 2907 2905 2906 2905 2905 2905 2906 2907 2908 2912 2916 2922 2927 2933 2940
2905 2902 2900 2899 2899 2897 2896 2894 2894 2895 2896 2893 2897 2896 2897 2897 2897 2898 2898 2898 2899 2902 2905 2910 2915 2921 2927
2896 2893 2891 2890 2889 2888 2886 2885 2884 2885 2888 2887 2888 2888 2888 2889 2890 2890 2890 2890 2891 2892 2895 2898 2902 2907 2913
2886 2884 2882 2880 2880 2879 2878 2877 2876 2875 2880 2879 2879 2881 2880 2881 2882 2883 2883 2883 2884 2884 2886 2889 2892 2895 2900
2876 2874 2872 2871 2871 2871 2870 2870 2869 2868 2871 2871 2870 2872 2873 2873 2875 2876 2877 2877 2877 2878 2879 2881 2884 2886 2890
2867 2865 2863 2862 2862 2861 2862 2861 2861 2861 2863 2863 2862 2864 2865 2866 2867 2870 2870 2871 2872 2872 2873 2874 2876 2879 2882
2858 2856 2855 2854 2852 2852 2853 2853 2853 2854 2855 2856 2856 2857 2857 2859 2860 2862 2864 2865 2866 2867 2867 2868 2869 2871 2874
2850 2849 2847 2845 2845 2845 2844 2845 2845 2846 2847 2848 2849 2849 2850 2852 2853 2854 2857 2858 2860 2861 2861 2863 2863 2865 2866
2843 2841 2840 2838 2837 2837 2837 2837 2837 2838 2840 2840 2841 2841 2842 2844 2845 2847 2848 2851 2852 2853 2855 2857 2858 2859 2860
2835 2834 2832 2832 2830 2830 2830 2830 2830 2831 2832 2833 2833 2834 2834 2836 2838 2839 2840 2841 2843 2844 2846 2848 2851 2853 2854
2827 2826 2825 2824 2824 2823 2822 2822 2822 2823 2824 2825 2825 2826 2826 2827 2832 2831 2831 2832 2833 2836 2838 2840 2843 2846 2847